TimeCEST,TemperatureF,Dew PointF,Humidity,Sea Level PressureIn,VisibilityMPH,Wind Direction,Wind SpeedMPH,Gust SpeedMPH,PrecipitationIn,Events,Conditions,WindDirDegrees,DateUTC
12:12 AM,39.2,39.2,100,30.21,6.2,Calm,Calm,-,N/A,,Unknown,0,2012-10-07 22:12:00
12:25 AM,39.2,39.2,100,30.21,6.2,NE,1.2,-,N/A,,Unknown,50,2012-10-07 22:25:00
12:32 AM,39.2,39.2,100,30.24,4.3,SSE,1.2,-,N/A,,Mist,150,2012-10-07 22:32:00
12:36 AM,39.2,39.2,100,30.24,2.2,SSE,1.2,-,N/A,,Mist,150,2012-10-07 22:36:00
12:37 AM,39.2,39.2,100,30.24,-9999.0,SSE,1.2,-,N/A,,Mist,150,2012-10-07 22:37:00
12:46 AM,39.2,39.2,100,30.24,-9999.0,South,1.2,-,N/A,,Mist,170,2012-10-07 22:46:00
12:50 AM,39.2,39.2,100,30.24,3.7,South,1.2,-,N/A,,Mist,190,2012-10-07 22:50:00
12:55 AM,39.2,39.2,100,30.24,0.8,SSW,1.2,-,N/A,,Mist,200,2012-10-07 22:55:00
12:59 AM,39.2,39.2,100,30.24,6.2,SSW,1.2,-,N/A,,Unknown,210,2012-10-07 22:59:00
1:03 AM,39.2,39.2,100,30.24,3.7,SSW,1.2,-,N/A,,Mist,210,2012-10-07 23:03:00
1:11 AM,37.4,37.4,100,30.24,5.0,South,2.3,-,N/A,,Mist,190,2012-10-07 23:11:00
1:25 AM,37.4,37.4,100,30.24,6.2,SW,1.2,-,N/A,,Partly Cloudy,220,2012-10-07 23:25:00
1:55 AM,39.2,39.2,100,30.21,6.2,South,1.2,-,N/A,,Partly Cloudy,170,2012-10-07 23:55:00
1:59 AM,39.2,37.4,93,30.21,-9999.0,South,2.3,-,N/A,,Partly Cloudy,190,2012-10-07 23:59:00
2:01 AM,39.2,37.4,93,30.21,3.7,South,2.3,-,N/A,,Partly Cloudy,190,2012-10-08 00:01:00
2:13 AM,37.4,37.4,100,30.21,-9999.0,South,1.2,-,N/A,,Partly Cloudy,170,2012-10-08 00:13:00
2:19 AM,37.4,37.4,100,30.21,2.2,SSE,1.2,-,N/A,,Scattered Clouds,160,2012-10-08 00:19:00
2:25 AM,37.4,37.4,100,30.21,4.3,SE,1.2,-,N/A,,Mostly Cloudy,140,2012-10-08 00:25:00
2:29 AM,37.4,37.4,100,30.21,5.6,Calm,Calm,-,N/A,,Overcast,0,2012-10-08 00:29:00
2:33 AM,37.4,37.4,100,30.21,4.3,Calm,Calm,-,N/A,,Overcast,0,2012-10-08 00:33:00
2:40 AM,37.4,37.4,100,30.21,5.0,SSE,1.2,-,N/A,,Mostly Cloudy,160,2012-10-08 00:40:00
2:41 AM,37.4,37.4,100,30.21,4.3,SSW,1.2,-,N/A,,Scattered Clouds,210,2012-10-08 00:41:00
2:48 AM,37.4,37.4,100,30.21,5.0,SW,1.2,-,N/A,,Partly Cloudy,220,2012-10-08 00:48:00
2:55 AM,37.4,37.4,100,30.21,6.2,SSW,2.3,-,N/A,,Partly Cloudy,200,2012-10-08 00:55:00
2:59 AM,37.4,37.4,100,30.21,3.1,SSW,2.3,-,N/A,,Partly Cloudy,210,2012-10-08 00:59:00
3:03 AM,37.4,37.4,100,30.21,6.2,SSW,2.3,-,N/A,,Scattered Clouds,210,2012-10-08 01:03:00
3:16 AM,37.4,37.4,100,30.21,6.2,South,2.3,-,N/A,,Partly Cloudy,170,2012-10-08 01:16:00
3:20 AM,37.4,37.4,100,30.21,3.7,SE,1.2,-,N/A,,Scattered Clouds,130,2012-10-08 01:20:00
3:25 AM,37.4,37.4,100,30.21,-9999.0,East,1.2,-,N/A,,Mostly Cloudy,80,2012-10-08 01:25:00
3:29 AM,37.4,37.4,100,30.21,6.2,ESE,1.2,-,N/A,,Overcast,110,2012-10-08 01:29:00
3:35 AM,37.4,37.4,100,30.21,3.1,SSW,2.3,-,N/A,,Overcast,200,2012-10-08 01:35:00
3:41 AM,37.4,37.4,100,30.21,2.5,South,2.3,-,N/A,,Overcast,180,2012-10-08 01:41:00
3:46 AM,37.4,37.4,100,30.21,3.1,South,2.3,-,N/A,,Mostly Cloudy,190,2012-10-08 01:46:00
3:50 AM,37.4,37.4,100,30.21,-9999.0,South,2.3,-,N/A,,Mostly Cloudy,190,2012-10-08 01:50:00
3:55 AM,39.2,39.2,100,30.18,-9999.0,South,2.3,-,N/A,,Overcast,190,2012-10-08 01:55:00
3:59 AM,39.2,39.2,100,30.18,3.1,South,2.3,-,N/A,,Mostly Cloudy,190,2012-10-08 01:59:00
4:03 AM,39.2,39.2,100,30.18,-9999.0,South,3.5,-,N/A,,Scattered Clouds,180,2012-10-08 02:03:00
4:07 AM,39.2,39.2,100,30.18,3.1,South,3.5,-,N/A,,Mist,170,2012-10-08 02:07:00
4:18 AM,39.2,39.2,100,30.18,-9999.0,SSE,2.3,-,N/A,,Mist,160,2012-10-08 02:18:00
4:25 AM,39.2,39.2,100,30.18,5.0,SSE,2.3,-,N/A,,Partly Cloudy,150,2012-10-08 02:25:00
4:36 AM,37.4,37.4,100,30.18,5.6,South,1.2,-,N/A,,Overcast,170,2012-10-08 02:36:00
4:55 AM,37.4,37.4,100,30.18,6.2,SSW,1.2,-,N/A,,Scattered Clouds,210,2012-10-08 02:55:00
5:25 AM,37.4,37.4,100,30.18,5.6,Calm,Calm,-,N/A,,Mist,0,2012-10-08 03:25:00
5:30 AM,37.4,37.4,100,30.18,4.3,Calm,Calm,-,N/A,,Mist,0,2012-10-08 03:30:00
5:37 AM,37.4,37.4,100,30.18,6.2,Calm,Calm,-,N/A,,Unknown,0,2012-10-08 03:37:00
5:49 AM,35.6,35.6,100,30.15,4.3,Calm,Calm,-,N/A,,Partly Cloudy,0,2012-10-08 03:49:00
5:55 AM,35.6,35.6,100,30.18,3.1,South,1.2,-,N/A,,Mist,190,2012-10-08 03:55:00
5:58 AM,35.6,35.6,100,30.18,-9999.0,SSW,1.2,-,N/A,,Mist,200,2012-10-08 03:58:00
6:03 AM,35.6,35.6,100,30.18,3.1,South,1.2,-,N/A,,Mist,190,2012-10-08 04:03:00
6:04 AM,35.6,35.6,100,30.15,5.0,South,1.2,-,N/A,,Mist,180,2012-10-08 04:04:00
6:11 AM,35.6,35.6,100,30.15,4.3,South,1.2,-,N/A,,Mist,190,2012-10-08 04:11:00
6:14 AM,35.6,35.6,100,30.15,-9999.0,South,1.2,-,N/A,,Mist,180,2012-10-08 04:14:00
6:25 AM,37.4,37.4,100,30.15,2.8,SSE,1.2,-,N/A,,Mist,150,2012-10-08 04:25:00
6:29 AM,35.6,35.6,100,30.15,3.1,ESE,2.3,-,N/A,,Mist,110,2012-10-08 04:29:00
6:36 AM,35.6,35.6,100,30.15,5.6,ESE,3.5,-,N/A,,Mist,120,2012-10-08 04:36:00
6:49 AM,35.6,35.6,100,30.15,6.2,SSE,1.2,-,N/A,,Unknown,160,2012-10-08 04:49:00
6:55 AM,35.6,35.6,100,30.15,6.2,SE,1.2,-,N/A,,Partly Cloudy,140,2012-10-08 04:55:00
7:10 AM,35.6,35.6,100,30.15,4.3,ESE,1.2,-,N/A,,Mostly Cloudy,120,2012-10-08 05:10:00
7:17 AM,35.6,35.6,100,30.15,5.0,SE,2.3,-,N/A,,Mostly Cloudy,130,2012-10-08 05:17:00
7:25 AM,35.6,35.6,100,30.15,5.6,SSE,2.3,-,N/A,,Overcast,160,2012-10-08 05:25:00
7:32 AM,35.6,35.6,100,30.15,4.3,SSE,1.2,-,N/A,,Overcast,160,2012-10-08 05:32:00
7:35 AM,35.6,35.6,100,30.15,5.0,SSE,1.2,-,N/A,,Mostly Cloudy,160,2012-10-08 05:35:00
7:39 AM,35.6,35.6,100,30.15,4.3,South,1.2,-,N/A,,Mostly Cloudy,170,2012-10-08 05:39:00
7:46 AM,35.6,35.6,100,30.15,5.6,South,1.2,-,N/A,,Overcast,170,2012-10-08 05:46:00
7:50 AM,37.4,35.6,93,30.15,4.3,South,1.2,-,N/A,,Overcast,180,2012-10-08 05:50:00
7:55 AM,37.4,37.4,100,30.15,5.0,SSW,1.2,-,N/A,,Overcast,200,2012-10-08 05:55:00
8:14 AM,37.4,37.4,100,30.15,4.3,SE,1.2,-,N/A,,Overcast,140,2012-10-08 06:14:00
8:20 AM,37.4,37.4,100,30.12,5.6,SE,1.2,-,N/A,,Overcast,130,2012-10-08 06:20:00
8:25 AM,37.4,37.4,100,30.12,5.6,ESE,2.3,-,N/A,,Overcast,120,2012-10-08 06:25:00
8:30 AM,35.6,35.6,100,30.12,5.6,SE,3.5,-,N/A,,Overcast,140,2012-10-08 06:30:00
8:33 AM,35.6,35.6,100,30.12,5.6,SE,3.5,-,N/A,,Overcast,140,2012-10-08 06:33:00
8:46 AM,41.0,39.2,93,30.12,5.6,SE,4.6,-,N/A,,Mostly Cloudy,140,2012-10-08 06:46:00
8:55 AM,41.0,41.0,100,30.12,6.2,SE,4.6,-,N/A,,Overcast,140,2012-10-08 06:55:00
9:25 AM,44.6,44.6,100,30.12,6.2,SSE,5.8,-,N/A,,Overcast,150,2012-10-08 07:25:00
9:55 AM,44.6,42.8,93,30.12,6.2,SE,5.8,-,N/A,,Overcast,130,2012-10-08 07:55:00
10:25 AM,48.2,44.6,87,30.12,6.2,SE,6.9,-,N/A,,Overcast,130,2012-10-08 08:25:00
10:55 AM,50.0,44.6,82,30.09,6.2,SE,5.8,-,N/A,,Overcast,140,2012-10-08 08:55:00
11:25 AM,51.8,44.6,76,30.09,6.2,SE,5.8,-,N/A,,Overcast,130,2012-10-08 09:25:00
11:55 AM,53.6,44.6,72,30.09,6.2,SE,5.8,-,N/A,,Overcast,140,2012-10-08 09:55:00
12:25 PM,55.4,42.8,63,30.09,6.2,SSE,8.1,-,N/A,,Overcast,150,2012-10-08 10:25:00
12:55 PM,57.2,44.6,63,30.09,6.2,South,8.1,-,N/A,,Overcast,180,2012-10-08 10:55:00
1:02 PM,55.4,42.8,63,30.06,6.2,South,8.1,-,N/A,,Overcast,170,2012-10-08 11:02:00
1:25 PM,57.2,44.6,63,30.06,6.2,South,8.1,-,N/A,,Overcast,180,2012-10-08 11:25:00
1:55 PM,55.4,42.8,63,30.04,6.2,South,8.1,-,N/A,,Overcast,170,2012-10-08 11:55:00
2:25 PM,57.2,42.8,59,30.04,-9999.0,SE,8.1,-,N/A,,Overcast,140,2012-10-08 12:25:00
2:55 PM,57.2,42.8,59,30.01,6.2,SE,8.1,-,N/A,,Overcast,130,2012-10-08 12:55:00
3:25 PM,57.2,42.8,59,30.01,6.2,SSE,8.1,-,N/A,,Overcast,150,2012-10-08 13:25:00
3:55 PM,57.2,44.6,63,30.01,6.2,ESE,6.9,-,N/A,,Overcast,120,2012-10-08 13:55:00
4:25 PM,57.2,44.6,63,29.98,6.2,ESE,6.9,-,N/A,,Overcast,110,2012-10-08 14:25:00
4:41 PM,57.2,44.6,63,29.98,6.2,ESE,5.8,-,N/A,,Overcast,120,2012-10-08 14:41:00
4:55 PM,57.2,42.8,59,29.98,6.2,SE,6.9,-,N/A,,Overcast,130,2012-10-08 14:55:00
5:25 PM,55.4,42.8,63,29.95,6.2,SE,5.8,-,N/A,,Overcast,140,2012-10-08 15:25:00
5:43 PM,55.4,44.6,67,29.92,6.2,SE,4.6,-,N/A,,Overcast,130,2012-10-08 15:43:00
5:55 PM,55.4,42.8,63,29.92,6.2,SE,4.6,-,N/A,,Overcast,130,2012-10-08 15:55:00
6:25 PM,55.4,44.6,67,29.92,6.2,SE,4.6,-,N/A,,Overcast,130,2012-10-08 16:25:00
6:55 PM,53.6,44.6,72,29.92,6.2,SE,3.5,-,N/A,,Overcast,130,2012-10-08 16:55:00
7:25 PM,53.6,46.4,77,29.92,6.2,East,3.5,-,N/A,,Overcast,100,2012-10-08 17:25:00
7:55 PM,53.6,46.4,77,29.92,6.2,ESE,3.5,-,N/A,,Overcast,120,2012-10-08 17:55:00
8:25 PM,51.8,46.4,82,29.89,6.2,SSE,3.5,-,N/A,,Mostly Cloudy,150,2012-10-08 18:25:00
8:55 PM,51.8,46.4,82,29.89,6.2,ESE,2.3,-,N/A,,Overcast,110,2012-10-08 18:55:00
9:02 PM,51.8,48.2,88,29.89,6.2,East,3.5,-,N/A,,Mostly Cloudy,100,2012-10-08 19:02:00
9:25 PM,51.8,48.2,88,29.89,6.2,East,2.3,-,N/A,,Overcast,90,2012-10-08 19:25:00
9:33 PM,51.8,48.2,88,29.89,6.2,NE,2.3,-,N/A,,Overcast,50,2012-10-08 19:33:00
9:55 PM,51.8,48.2,88,29.89,6.2,NNE,2.3,-,N/A,,Overcast,30,2012-10-08 19:55:00
9:59 PM,51.8,48.2,88,29.89,6.2,NNE,1.2,-,N/A,,Overcast,20,2012-10-08 19:59:00
10:07 PM,51.8,48.2,88,29.89,6.2,ENE,1.2,-,N/A,,Overcast,60,2012-10-08 20:07:00
10:25 PM,51.8,48.2,88,29.89,6.2,South,1.2,-,N/A,,Overcast,180,2012-10-08 20:25:00
10:55 PM,51.8,48.2,88,29.86,6.2,ESE,1.2,-,N/A,,Overcast,110,2012-10-08 20:55:00
11:06 PM,51.8,48.2,88,29.86,6.2,SE,2.3,-,N/A,Rain,Light Rain,130,2012-10-08 21:06:00
11:25 PM,51.8,48.2,88,29.86,6.2,SSE,2.3,-,N/A,Rain,Light Rain,150,2012-10-08 21:25:00
11:38 PM,51.8,48.2,88,29.86,6.2,East,1.2,-,N/A,,Light Drizzle,90,2012-10-08 21:38:00
11:55 PM,51.8,48.2,88,29.86,6.2,NNE,1.2,-,N/A,,Overcast,30,2012-10-08 21:55:00